Voltar ao catálogo

CZ-6A DEB

AtivoPO
NORAD 61497·DEBRIS·🇨🇳 China

Lançado Aug 6, 2024 de Taiyuan Satellite Launch Center

Loading…

Próximas Passagens (próximas 24 horas)

TLE

AtualizadoSource: Space-Track

Época: Sep 13, 2026, 22:34 UTC

1 61497U 24140ABF 26256.94077523  .00002042  00000-0  35217-3 0  9995
2 61497  88.9970 258.8420 0124972 304.8125  54.1381 14.63100448109965

Acompanhe CZ-6A DEB em tempo real com AllMySat

Download on the App Store